W5TUX Weather Reports


Display with metric or nautical units.
time (UTC)temp
F
wind
direction
speed
MPH
gust
MPH
rain 1hr
in
rain 24hr
in
rain mn
in
humidity
%
barometer
mb
20260510101015 63 130 3.0 4.0 0.00 0.00 0.00 99 1018.2
20260510100510 63 114 2.0 2.0 0.00 0.00 0.00 99 1018.5
20260510100008 63 134 3.0 6.0 0.00 0.00 0.00 99 1018.8
20260510095503 63 109 2.0 3.0 0.00 0.00 0.00 99 1018.7
20260510095002 63 72 1.0 2.0 0.00 0.00 0.00 98 1018.9
20260510094457 63 79 1.0 2.0 0.00 0.00 0.00 98 1018.8
20260510093953 63 75 4.0 6.0 0.00 0.00 0.00 98 1018.5
20260510093449 64 26 2.0 4.0 0.00 0.00 0.00 97 1019.0
20260510092945 64 122 2.0 2.0 0.00 0.00 0.00 95 1018.5
20260510092442 64 93 5.0 7.0 0.00 0.00 0.00 94 1017.8
20260510091936 64 62 7.0 9.0 0.00 0.00 0.00 92 1017.6
20260510091434 65 87 3.0 4.0 0.00 0.00 0.00 90 1019.2
20260510090931 66 342 1.0 1.0 0.00 0.00 0.00 89 1019.7
20260510090427 66 111 3.0 4.0 0.00 0.00 0.00 88 1019.5
20260510085923 66 55 5.0 9.0 0.00 0.00 0.00 88 1019.1
20260510085418 66 78 9.0 15.0 0.00 0.00 0.00 87 1018.9
20260510084913 67 132 3.0 4.0 0.00 0.00 0.00 86 1018.9
20260510084411 67 60 2.0 2.0 0.00 0.00 0.00 88 1019.1
20260510083908 68 125 4.0 6.0 0.00 0.00 0.00 92 1018.7
20260510083404 68 247 0.0 0.0 0.00 0.00 0.00 93 1018.2
20260510082900 68 265 0.0 0.0 0.00 0.00 0.00 93 1017.9
20260510082357 69 296 1.0 1.0 0.00 0.00 0.00 94 1017.5
20260510081856 69 112 1.0 2.0 0.00 0.00 0.00 95 1017.3
20260510081352 69 52 3.0 3.0 0.00 0.00 0.00 96 1017.3
20260510080849 71 37 1.0 1.0 0.00 0.00 0.00 96 1017.5
20260510080348 72 55 1.0 2.0 0.00 0.00 0.00 96 1017.5
20260510075845 72 62 1.0 2.0 0.00 0.00 0.00 96 1017.4
20260510075343 72 78 1.0 1.0 0.00 0.00 0.00 96 1017.4
20260510074839 72 86 1.0 2.0 0.00 0.00 0.00 96 1017.4
20260510074337 72 66 1.0 2.0 0.00 0.00 0.00 96 1017.1
20260510073833 72 99 0.0 0.0 0.00 0.00 0.00 96 1016.6
20260510073323 72 206 1.0 1.0 0.00 0.00 0.00 95 1016.0
20260510072820 72 111 0.0 1.0 0.00 0.00 0.00 95 1015.8
20260510072317 72 49 1.0 1.0 0.00 0.00 0.00 95 1015.7
20260510071813 72 146 2.0 2.0 0.00 0.00 0.00 95 1015.9
20260510071308 72 153 2.0 3.0 0.00 0.00 0.00 95 1015.4
20260510070808 72 45 3.0 4.0 0.00 0.00 0.00 94 1015.5
20260510070304 73 133 3.0 4.0 0.00 0.00 0.00 94 1015.3
20260510065804 73 115 2.0 4.0 0.00 0.00 0.00 94 1015.7
20260510065301 73 84 4.0 4.0 0.00 0.00 0.00 93 1015.8
20260510064758 74 119 3.0 4.0 0.00 0.00 0.00 91 1016.0
20260510064256 75 47 4.0 4.0 0.00 0.00 0.00 88 1017.0
20260510063751 75 296 1.0 2.0 0.00 0.00 0.00 87 1017.5
20260510063248 75 184 2.0 3.0 0.00 0.00 0.00 87 1017.5
20260510062745 75 279 3.0 3.0 0.00 0.00 0.00 87 1017.6
20260510062241 75 252 0.0 0.0 0.00 0.00 0.00 88 1017.8
20260510061736 74 314 1.0 1.0 0.00 0.00 0.00 88 1017.7
20260510061233 74 93 0.0 1.0 0.00 0.00 0.00 88 1017.5
20260510060729 74 103 1.0 1.0 0.00 0.00 0.00 88 1017.5
20260510060226 74 61 1.0 2.0 0.00 0.00 0.00 87 1017.6
20260510055723 74 354 0.0 0.0 0.00 0.00 0.00 87 1017.6
20260510055222 74 345 0.0 0.0 0.00 0.00 0.00 88 1017.1
20260510054721 74 342 0.0 0.0 0.00 0.00 0.00 87 1016.5
20260510054217 74 173 0.0 0.0 0.00 0.00 0.00 87 1015.7
20260510053711 74 352 1.0 1.0 0.00 0.00 0.00 87 1015.4
20260510053208 74 31 1.0 1.0 0.00 0.00 0.00 86 1015.1
20260510052703 75 54 2.0 2.0 0.00 0.00 0.00 86 1015.0
20260510052200 75 132 3.0 4.0 0.00 0.00 0.00 86 1015.0
20260510051655 75 69 2.0 3.0 0.00 0.00 0.00 85 1015.0
20260510051152 75 75 2.0 4.0 0.00 0.00 0.00 85 1014.6
20260510050650 75 113 2.0 2.0 0.00 0.00 0.00 84 1014.7
20260510050147 75 90 1.0 2.0 0.00 0.00 0.00 83 1014.5
20260510045643 75 56 1.0 1.0 0.00 0.00 0.00 83 1014.5
20260510045140 75 21 3.0 3.0 0.00 0.00 0.00 82 1014.5
20260510044636 75 147 1.0 2.0 0.00 0.00 0.00 81 1014.6
20260510044134 75 53 3.0 4.0 0.00 0.00 0.00 80 1014.5
20260510043629 75 78 2.0 3.0 0.00 0.00 0.00 79 1014.2
20260510043126 75 76 4.0 6.0 0.00 0.00 0.00 78 1014.2
20260510042624 75 78 2.0 3.0 0.00 0.00 0.00 78 1014.3
20260510042119 75 80 2.0 2.0 0.00 0.00 0.00 77 1014.3
20260510041617 75 169 1.0 2.0 0.00 0.00 0.00 78 1014.3
20260510041115 74 104 3.0 6.0 0.00 0.00 0.00 78 1014.1
20260510040612 75 106 1.0 1.0 0.00 0.00 0.00 77 1014.2
20260510040108 75 53 2.0 2.0 0.00 0.00 0.00 77 1014.2
20260510035604 75 156 1.0 1.0 0.00 0.00 0.00 77 1014.2
20260510035103 75 131 2.0 2.0 0.00 0.00 0.00 77 1014.3
20260510034601 75 152 1.0 2.0 0.00 0.00 0.00 77 1014.5
20260510034058 75 127 0.0 1.0 0.00 0.00 0.00 77 1014.7
20260510033555 75 115 2.0 2.0 0.00 0.00 0.00 77 1014.6
20260510033052 75 120 0.0 1.0 0.00 0.00 0.00 77 1014.5
20260510032549 75 141 1.0 1.0 0.00 0.00 0.00 76 1014.6
20260510032044 75 102 1.0 2.0 0.00 0.00 0.00 76 1014.6
20260510031544 75 86 1.0 1.0 0.00 0.00 0.00 75 1014.4
20260510031041 76 126 3.0 3.0 0.00 0.00 0.00 75 1014.4
20260510030536 76 98 1.0 1.0 0.00 0.00 0.00 74 1014.5
20260510030034 76 90 2.0 2.0 0.00 0.00 0.00 74 1014.5
20260510025531 76 113 1.0 2.0 0.00 0.00 0.00 73 1014.4
20260510025028 76 124 3.0 3.0 0.00 0.00 0.00 73 1014.4
20260510024525 76 103 2.0 2.0 0.00 0.00 0.00 72 1014.4
20260510024021 77 70 0.0 1.0 0.00 0.00 0.00 72 1014.4
20260510023517 77 93 1.0 1.0 0.00 0.00 0.00 71 1014.5
20260510023015 77 107 1.0 1.0 0.00 0.00 0.00 71 1014.6
20260510022514 77 134 1.0 1.0 0.00 0.00 0.00 70 1014.5
20260510022014 77 99 1.0 1.0 0.00 0.00 0.00 70 1014.3
20260510021511 77 146 2.0 3.0 0.00 0.00 0.00 70 1014.3
20260510021008 77 125 0.0 0.0 0.00 0.00 0.00 70 1014.3
20260510020502 77 120 2.0 2.0 0.00 0.00 0.00 69 1014.3
20260510015958 77 118 1.0 1.0 0.00 0.00 0.00 69 1014.1
20260510015454 78 93 0.0 1.0 0.00 0.00 0.00 68 1014.1
20260510014949 78 109 0.0 0.0 0.00 0.00 0.00 68 1013.9
20260510014447 78 110 0.0 1.0 0.00 0.00 0.00 68 1014.1
20260510013944 78 101 1.0 1.0 0.00 0.00 0.00 67 1014.1
20260510013438 78 30 2.0 2.0 0.00 0.00 0.00 66 1013.8
20260510012934 79 74 0.0 0.0 0.00 0.00 0.00 66 1013.9
20260510012429 79 77 1.0 1.0 0.00 0.00 0.00 65 1013.9
20260510011924 79 72 1.0 1.0 0.00 0.00 0.00 65 1013.9
20260510011419 80 61 1.0 2.0 0.00 0.00 0.00 64 1013.7
20260510010916 80 93 2.0 3.0 0.00 0.00 0.00 63 1013.7
20260510010413 80 200 1.0 1.0 0.00 0.00 0.00 63 1013.6
20260510005910 80 96 1.0 1.0 0.00 0.00 0.00 62 1013.7
20260510005406 80 123 2.0 3.0 0.00 0.00 0.00 61 1013.6
20260510004903 81 159 2.0 2.0 0.00 0.00 0.00 61 1013.5
20260510004401 81 161 0.0 0.0 0.00 0.00 0.00 60 1013.4
20260510003858 81 145 1.0 1.0 0.00 0.00 0.00 58 1013.4
20260510003355 82 122 1.0 2.0 0.00 0.00 0.00 57 1013.6
20260510002854 82 33 2.0 3.0 0.00 0.00 0.00 56 1013.5
20260510002352 82 121 3.0 4.0 0.00 0.00 0.00 55 1013.4
20260510001848 82 54 2.0 3.0 0.00 0.00 0.00 54 1013.5
20260510001346 82 46 2.0 2.0 0.00 0.00 0.00 53 1013.4
20260510000842 83 75 0.0 1.0 0.00 0.00 0.00 52 1013.4
20260510000341 83 64 2.0 4.0 0.00 0.00 0.00 52 1013.6
20260509235836 83 170 1.0 1.0 0.00 0.00 0.00 56 1013.5
20260509235332 83 86 0.0 1.0 0.00 0.00 0.00 57 1013.5
20260509234828 83 85 1.0 1.0 0.00 0.00 0.00 57 1013.5
20260509234326 83 31 2.0 2.0 0.00 0.00 0.00 56 1013.7
20260509233824 83 117 2.0 3.0 0.00 0.00 0.00 55 1013.6
20260509233321 83 40 2.0 2.0 0.00 0.00 0.00 57 1013.8
20260509232816 83 106 0.0 1.0 0.00 0.00 0.00 57 1013.7
20260509232314 83 54 3.0 3.0 0.00 0.00 0.00 58 1013.7
20260509231810 83 43 2.0 3.0 0.00 0.00 0.00 58 1013.6
20260509231307 83 123 4.0 4.0 0.00 0.00 0.00 58 1013.7
20260509230805 83 102 3.0 3.0 0.00 0.00 0.00 57 1013.5
20260509230302 84 123 3.0 4.0 0.00 0.00 0.00 56 1013.7
20260509225757 84 86 1.0 2.0 0.00 0.00 0.00 56 1013.6
20260509225253 83 156 1.0 2.0 0.00 0.00 0.00 56 1013.7
20260509224749 83 192 1.0 2.0 0.00 0.00 0.00 57 1013.6
20260509224246 84 85 2.0 2.0 0.00 0.00 0.00 57 1013.8
20260509223743 84 327 3.0 3.0 0.00 0.00 0.00 57 1013.5
20260509223240 84 86 0.0 1.0 0.00 0.00 0.00 58 1013.8
20260509222737 84 130 1.0 1.0 0.00 0.00 0.00 59 1013.6
20260509222232 84 145 2.0 3.0 0.00 0.00 0.00 58 1013.3
20260509221728 84 158 2.0 3.0 0.00 0.00 0.00 58 1013.4
20260509221225 84 64 5.0 7.0 0.00 0.00 0.00 58 1013.3
20260509220720 84 68 1.0 1.0 0.00 0.00 0.00 60 1013.3
20260509220217 84 108 6.0 8.0 0.00 0.00 0.00 59 1013.4
20260509215713 83 122 2.0 4.0 0.00 0.00 0.00 61 1013.4
20260509215210 83 200 2.0 2.0 0.00 0.00 0.00 61 1013.5
20260509214707 85 108 4.0 7.0 0.00 0.00 0.00 59 1013.6
20260509214204 84 164 1.0 2.0 0.00 0.00 0.00 59 1013.5
20260509213700 85 142 2.0 3.0 0.00 0.00 0.00 60 1013.6
20260509213156 84 189 0.0 1.0 0.00 0.00 0.00 59 1013.9
20260509212654 85 86 3.0 4.0 0.00 0.00 0.00 60 1013.8
20260509212150 85 159 1.0 2.0 0.00 0.00 0.00 61 1013.8
20260509211646 84 208 3.0 4.0 0.00 0.00 0.00 60 1013.8
20260509211143 83 77 0.0 1.0 0.00 0.00 0.00 63 1013.8
20260509210640 84 224 2.0 4.0 0.00 0.00 0.00 61 1014.2
20260509210137 85 10 1.0 2.0 0.00 0.00 0.00 59 1014.1
20260509205632 84 63 0.0 0.0 0.00 0.00 0.00 62 1014.2
20260509205127 84 122 4.0 6.0 0.00 0.00 0.00 60 1014.2
20260509204623 85 57 1.0 2.0 0.00 0.00 0.00 61 1014.3
20260509204120 84 64 2.0 4.0 0.00 0.00 0.00 62 1014.2
20260509203616 85 78 5.0 6.0 0.00 0.00 0.00 60 1014.4
20260509203109 85 145 2.0 3.0 0.00 0.00 0.00 61 1014.5
20260509202608 85 46 6.0 8.0 0.00 0.00 0.00 61 1014.7
20260509202104 85 192 1.0 2.0 0.00 0.00 0.00 62 1014.4
20260509201559 84 71 4.0 6.0 0.00 0.00 0.00 62 1014.4
20260509201058 85 95 3.0 4.0 0.00 0.00 0.00 63 1014.5
20260509200557 85 32 1.0 2.0 0.00 0.00 0.00 62 1014.3
20260509200053 87 79 2.0 2.0 0.00 0.00 0.00 59 1014.6
20260509195548 86 97 0.0 1.0 0.00 0.00 0.00 61 1014.7
20260509195043 86 65 1.0 1.0 0.00 0.00 0.00 61 1014.7
20260509194539 86 299 1.0 1.0 0.00 0.00 0.00 62 1014.7
20260509194037 86 76 0.0 1.0 0.00 0.00 0.00 61 1014.8
20260509193536 87 65 2.0 3.0 0.00 0.00 0.00 58 1014.6
20260509193033 85 51 2.0 2.0 0.00 0.00 0.00 63 1014.7
20260509192530 87 55 1.0 2.0 0.00 0.00 0.00 59 1015.0
20260509192025 88 95 0.0 1.0 0.00 0.00 0.00 59 1014.7
20260509191519 87 142 0.0 0.0 0.00 0.00 0.00 60 1014.8
20260509191015 85 73 0.0 1.0 0.00 0.00 0.00 63 1014.9
20260509190512 87 160 1.0 1.0 0.00 0.00 0.00 60 1014.8
20260509190010 85 239 1.0 1.0 0.00 0.00 0.00 61 1015.0
20260509185507 86 38 4.0 6.0 0.00 0.00 0.00 62 1015.1
20260509185004 86 128 4.0 4.0 0.00 0.00 0.00 63 1015.0
20260509184503 85 54 2.0 3.0 0.00 0.00 0.00 61 1014.9
20260509183958 85 72 1.0 1.0 0.00 0.00 0.00 63 1015.1
20260509183452 84 124 0.0 0.0 0.00 0.00 0.00 64 1015.1
20260509182949 86 76 2.0 2.0 0.00 0.00 0.00 62 1015.0
20260509182445 87 78 0.0 0.0 0.00 0.00 0.00 59 1015.2
20260509181943 86 80 1.0 2.0 0.00 0.00 0.00 60 1015.4
20260509181441 85 122 3.0 6.0 0.00 0.00 0.00 61 1015.2
20260509180938 88 210 2.0 2.0 0.00 0.00 0.00 59 1015.1
20260509180433 87 162 0.0 1.0 0.00 0.00 0.00 60 1015.3
20260509175931 87 141 1.0 2.0 0.00 0.00 0.00 59 1015.4
20260509175427 87 62 0.0 0.0 0.00 0.00 0.00 61 1015.4
20260509174923 86 130 0.0 0.0 0.00 0.00 0.00 63 1015.6
20260509174419 85 70 0.0 1.0 0.00 0.00 0.00 65 1015.5
20260509173915 87 269 1.0 1.0 0.00 0.00 0.00 64 1015.7
20260509173415 86 333 1.0 1.0 0.00 0.00 0.00 62 1015.5
20260509172912 86 287 1.0 1.0 0.00 0.00 0.00 65 1015.9
20260509172408 86 84 0.0 0.0 0.00 0.00 0.00 62 1015.7
20260509171904 85 61 0.0 1.0 0.00 0.00 0.00 64 1015.9
20260509171400 82 333 1.0 1.0 0.00 0.00 0.00 68 1015.8
20260509170857 83 111 0.0 1.0 0.00 0.00 0.00 69 1015.9
20260509170353 83 115 1.0 1.0 0.00 0.00 0.00 68 1015.9
20260509165848 80 216 1.0 1.0 0.00 0.00 0.00 73 1016.0
20260509165343 82 17 2.0 2.0 0.00 0.00 0.00 70 1015.8
20260509164839 81 73 1.0 1.0 0.00 0.00 0.00 72 1015.9
20260509164335 81 279 2.0 2.0 0.00 0.00 0.00 71 1016.1
20260509163832 81 73 1.0 2.0 0.00 0.00 0.00 70 1016.0
20260509163328 80 62 0.0 0.0 0.00 0.00 0.00 75 1016.0
20260509162827 80 128 1.0 1.0 0.00 0.00 0.00 74 1016.0
20260509162320 77 273 0.0 1.0 0.00 0.00 0.00 77 1015.9
20260509161817 77 206 1.0 1.0 0.00 0.00 0.00 78 1016.0
20260509161314 78 320 2.0 2.0 0.00 0.00 0.00 76 1015.9
20260509160809 78 107 1.0 2.0 0.00 0.00 0.00 75 1015.9
20260509160305 78 271 0.0 1.0 0.00 0.00 0.00 78 1015.8
20260509155801 78 188 1.0 2.0 0.00 0.00 0.00 78 1016.0
20260509155257 76 118 0.0 0.0 0.00 0.00 0.00 81 1015.8
20260509154753 76 294 1.0 1.0 0.00 0.00 0.00 81 1015.9
20260509154250 75 252 1.0 1.0 0.00 0.00 0.00 82 1016.1
20260509153747 76 314 1.0 1.0 0.00 0.00 0.00 81 1015.8
20260509153243 75 121 0.0 1.0 0.00 0.00 0.00 82 1015.8
20260509152740 76 278 2.0 2.0 0.00 0.00 0.00 82 1015.9
20260509152236 75 87 0.0 0.0 0.00 0.00 0.00 85 1016.0
20260509151734 74 246 1.0 2.0 0.00 0.00 0.00 85 1016.0
20260509151230 74 265 1.0 1.0 0.00 0.00 0.00 86 1016.0
20260509150728 73 221 0.0 0.0 0.00 0.00 0.00 87 1016.0
20260509150226 73 221 1.0 1.0 0.00 0.00 0.00 88 1016.0
20260509145722 73 292 1.0 1.0 0.00 0.00 0.00 88 1016.0
20260509145217 73 208 1.0 1.0 0.00 0.00 0.00 87 1016.0
20260509144714 73 219 0.0 1.0 0.00 0.00 0.00 87 1015.9
20260509144211 73 311 1.0 1.0 0.00 0.00 0.00 87 1016.0
20260509143708 73 101 0.0 0.0 0.00 0.00 0.00 88 1015.8
20260509143206 72 263 0.0 1.0 0.00 0.00 0.00 89 1015.9
20260509142701 72 176 2.0 2.0 0.00 0.00 0.00 89 1015.7
20260509142158 71 227 1.0 1.0 0.00 0.00 0.00 90 1015.7
20260509141653 71 320 1.0 2.0 0.00 0.00 0.00 93 1015.7
20260509141150 71 260 1.0 1.0 0.00 0.00 0.00 96 1015.7
20260509140647 70 301 1.0 1.0 0.00 0.00 0.00 98 1015.7
20260509140145 70 268 1.0 2.0 0.00 0.00 0.00 98 1015.4
20260509135642 70 308 1.0 1.0 0.00 0.00 0.00 99 1015.8
20260509135140 70 198 1.0 1.0 0.00 0.00 0.00 99 1015.6
20260509134636 70 198 0.0 0.0 0.00 0.00 0.00 99 1015.6
20260509134134 70 298 0.0 1.0 0.00 0.00 0.00 99 1015.6
20260509133631 71 186 0.0 0.0 0.00 0.00 0.00 99 1015.3
20260509133128 70 140 0.0 0.0 0.00 0.00 0.00 99 1015.3
20260509132626 70 269 0.0 0.0 0.00 0.00 0.00 99 1015.3
20260509132125 71 187 0.0 0.0 0.00 0.00 0.00 99 1015.5
20260509131620 70 140 0.0 0.0 0.00 0.00 0.00 99 1015.5
20260509131118 69 246 0.0 1.0 0.00 0.00 0.00 99 1015.4
20260509130613 69 205 0.0 0.0 0.00 0.00 0.00 99 1015.4
20260509130110 69 105 1.0 1.0 0.00 0.00 0.00 99 1015.4
20260509125606 69 71 0.0 1.0 0.00 0.00 0.00 99 1015.4
20260509125103 69 80 0.0 0.0 0.00 0.00 0.00 99 1015.6
20260509124559 69 213 0.0 0.0 0.00 0.00 0.00 99 1015.3
20260509124057 69 51 0.0 1.0 0.00 0.00 0.00 99 1015.3
20260509123555 69 121 0.0 0.0 0.00 0.00 0.00 99 1015.4
20260509123051 69 161 0.0 0.0 0.00 0.00 0.00 99 1015.4
20260509122547 69 102 0.0 0.0 0.00 0.00 0.00 99 1015.3
20260509122044 69 94 0.0 0.0 0.00 0.00 0.00 99 1015.4
20260509121541 68 158 0.0 0.0 0.00 0.00 0.00 99 1015.2
20260509121038 68 118 0.0 0.0 0.00 0.00 0.00 99 1015.2
20260509120536 68 151 0.0 0.0 0.00 0.00 0.00 99 1015.2
20260509120035 68 106 0.0 0.0 0.00 0.00 0.00 99 1015.2
20260509115531 68 199 1.0 1.0 0.00 0.00 0.00 99 1015.0
20260509115029 68 113 1.0 1.0 0.00 0.00 0.00 99 1015.0
20260509114527 68 126 1.0 1.0 0.00 0.00 0.00 99 1014.9
20260509114026 68 142 0.0 1.0 0.00 0.00 0.00 99 1015.0
20260509113523 68 91 0.0 0.0 0.00 0.00 0.00 99 1014.9
20260509113021 68 97 0.0 0.0 0.00 0.00 0.00 99 1014.8
20260509112517 68 148 0.0 0.0 0.00 0.00 0.00 99 1014.8
20260509112014 68 108 4.0 4.0 0.00 0.00 0.00 99 1014.4
20260509111511 68 96 1.0 1.0 0.00 0.00 0.00 99 1014.5
20260509111008 68 134 1.0 1.0 0.00 0.00 0.00 99 1014.3
20260509110505 68 126 0.0 1.0 0.00 0.00 0.00 99 1014.1
20260509110002 68 137 0.0 0.0 0.00 0.00 0.00 99 1014.2
20260509105501 68 88 1.0 1.0 0.00 0.00 0.00 99 1014.1
20260509104958 68 132 0.0 1.0 0.00 0.00 0.00 99 1014.1
20260509104454 68 180 0.0 0.0 0.00 0.00 0.00 99 1014.1
20260509103952 68 151 1.0 1.0 0.00 0.00 0.00 99 1014.1
20260509103449 68 137 1.0 1.0 0.00 0.00 0.00 99 1014.3
20260509102947 68 149 0.0 0.0 0.00 0.00 0.00 99 1014.0
20260509102444 68 145 0.0 0.0 0.00 0.00 0.00 99 1013.8
20260509101940 68 148 1.0 1.0 0.00 0.00 0.00 99 1013.8
20260509101437 68 71 0.0 2.0 0.00 0.00 0.00 99 1013.7